This is the latest recevied weather packets stored in our database for station/object N3LF. If no packets are shown the sender has not sent any weather packets the latest 10 day(s).
| Time | Temp. | Humidity | Pressure | Rain* | Wind** | Luminosity | Snow |
|---|---|---|---|---|---|---|---|
| 1777744838 | 17.22° C | 43% | 1019.3 hPa | 0 mm | - | 773 W/m² | - |
| 1777744537 | 16.67° C | 44% | 1019.5 hPa | 0 mm | - | 448 W/m² | - |
| 1777744233 | 16.67° C | 43% | 1019.7 hPa | 0 mm | - | 219 W/m² | - |
| 1777743931 | 16.67° C | 43% | 1019.6 hPa | 0 mm | - | 120 W/m² | - |
| 1777743627 | 17.78° C | 47% | 1019.6 hPa | 0 mm | - | 181 W/m² | - |
| 1777743324 | 17.78° C | 41% | 1019.7 hPa | 0 mm | - | 239 W/m² | - |
| 1777743023 | 17.22° C | 41% | 1019.6 hPa | 0 mm | - | 352 W/m² | - |
| 1777742720 | 17.78° C | 43% | 1019.8 hPa | 0 mm | - | 839 W/m² | - |
| 1777742416 | 17.22° C | 42% | 1019.8 hPa | 0 mm | - | 826 W/m² | - |
| 1777742111 | 17.78° C | 42% | 1019.8 hPa | 0 mm | - | 170 W/m² | - |
| 1777741809 | 17.22° C | 40% | 1020 hPa | 0 mm | - | 222 W/m² | - |
| 1777741506 | 17.22° C | 39% | 1020 hPa | 0 mm | - | 270 W/m² | - |
| 1777741202 | 17.22° C | 40% | 1020 hPa | 0 mm | - | 818 W/m² | - |
| 1777740899 | 17.78° C | 41% | 1019.9 hPa | 0 mm | - | 762 W/m² | - |
| 1777740596 | 18.33° C | 40% | 1020.1 hPa | 0 mm | - | 768 W/m² | - |
| 1777740292 | 18.33° C | 41% | 1020.3 hPa | 0 mm | - | 775 W/m² | - |
| 1777739989 | 17.78° C | 42% | 1020.1 hPa | 0 mm | - | 773 W/m² | - |
| 1777739684 | 17.22° C | 39% | 1020.2 hPa | 0 mm | - | 720 W/m² | - |
| 1777739383 | 17.78° C | 37% | 1020.1 hPa | 0 mm | - | 717 W/m² | - |
| 1777739079 | 18.33° C | 37% | 1020.3 hPa | 0 mm | - | 717 W/m² | - |
| 1777738776 | 18.33° C | 34% | 1020.2 hPa | 0 mm | - | 692 W/m² | - |
| 1777738472 | 16.11° C | 36% | 1020.3 hPa | 0 mm | - | 679 W/m² | - |
| 1777738171 | 16.67° C | 38% | 1020.4 hPa | 0 mm | - | 672 W/m² | - |
| 1777737868 | 16.67° C | 41% | 1020.5 hPa | 0 mm | - | 663 W/m² | - |
| 1777737567 | 16.67° C | 42% | 1020.4 hPa | 0 mm | - | 653 W/m² | - |
* Rain latest hour (hover to see other rain measurements)
** Current wind speed in m/s (hover to see current wind gust speed)